Location: Aalen
(48.8330°N, 10.1000°E)
Time: 06:43:10
(UTC+02:00)

UWE-3 - Pass Details

Date: 07 April 2023
Orbit: 576 x 670 km, 97.7° (Epoch: 29 May)

Event Time Altitude Azimuth Distance (km) Brightness Sun altitude
Rises 05:26:26 0° 3° (N) 2,955 ? -13.2°
Reaches altitude 10° 05:28:58 10° 351° (N) 2,024 ? -12.8°
Maximum altitude 05:32:33 25° 296° (WNW) 1,268 ? -12.3°
Enters shadow 05:34:40 17° 256° (WSW) 1,561 ? -11.9°
